Showing default

EOS-4, 51656

Orbit data source: Space-Track

EOS-4, 51656 is a payload satellite owned by ISRO (IN) in SSO that was launched on Mon, 14 Feb 2022 UTC via a PSLV-XL launch vehicle from the Sirharikota (SRI). Payload-class satellites include a variety of spacecraft equipped with specific instruments for various scientific and technological missions. These include communications satellites like Starlink; space stations such as the ISS; scientific satellites like the Hubble; Earth observation satellites from companies like Planet Labs, Umbra, and HawkEye 360; GPS; miniature CubeSats for education and research; and military/defense satellites.

Loading next visibility...
Identifier
51656, 2022-013A
Orbit
SSO
Country
Flag of ININ / IND
Related business
Manufacturer
ISAC/HAL
Mission
Operational Civil Radar Imaging
Bus & Motor
IRS, Unknown motor
Mass
1,710 kg wet, 1,650 kg dry
Launch date (UTC)
2022-02-14 (4 years ago)
Launch vehicle
PSLV-XL
Launch site
Sirharikota (SRI)
Object type
Payload
Rocket body
Debris
Shape & HBR
Box + Hex Box + 3 Pan, 5.8 m
Radar Cross Section
17.625 m², Large (>1 m²)

Expand to show TLE details & history
Last TLE update: 9 hours ago

TLE from 9 hours ago
0 EOS-4
1 51656U 22013A   26173.06012834  .00001750  00000-0  10361-3 0  9991
2 51656  97.5114 179.6353 0001855  96.0901 264.0542 15.12721078240227
Epoch: 2026-06-22T01:26Z
TLE epoch observation values (Epoch: 2026-06-22T01:26:35.088Z)
Latitude
0.00004°
Longitude
-112.26238°
Altitude
531.116 km
Speed
7.597 km/s
True Right ascension
11h 58m 32s
True Declination
0° 00' 00"
Sunlit
Object was in daylight at epoch
Visualization orbit readout
Latitude
Unknown
Longitude
Unknown
Altitude
Unknown
Speed
Unknown
Apparent Right ascension
Unknown
Apparent Declination
Unknown
Sunlit
N/A
Visualization observer readout
Local Sidereal Time
21:27:44
Azimuth
Unknown
Elevation
Unknown
Doppler factor
Unknown
Orbital elements
Apogee altitude
526.166 km
Perigee altitude
523.605 km
Semi-major axis
6,903.023 km
Eccentricity
0.00019
Inclination
97.5114°
RAAN
179.6353°
Arg. of periapsis
96.0901°
True anomaly
264.03306°
Mean anomaly
264.0542°
Eccentric anomaly
264.04363°
Mean motion
3.78429 °/min
Orbital period
95.13 mins
BSTAR
0.00010361
Loading maneuver chart data...
Computing Atmospheric mass density...
Loading historical data...
Loading historical data...
Loading historical data...
Loading historical data...
Loading historical data...
Loading historical data...
Loading historical data...
Other satellites on launch #13 in the year 2022 (2022-02-14 UTC)

Documentation

Showing up to 5 results
|